DECAYED

STARLINK-5103, 53983 (Decayed)

Orbit data source: Space-Track

STARLINK-5103, 53983 was a payload satellite owned by SpaceX/Seattle (US) in LEO that was launched on Wed, 05 Oct 2022 UTC via an FALCON 9 launch vehicle from the Air Force Western Test Range (AFWTR). Payload-class satellites include a variety of spacecraft equipped with specific instruments for various scientific and technological missions. These include communications satellites like Starlink; space stations such as the ISS; scientific satellites like the Hubble; Earth observation satellites from companies like Planet Labs, Umbra, and HawkEye 360; GPS; miniature CubeSats for education and research; and military/defense satellites.

Not visible in the next 10 days
Identifier
53983, 2022-125V
Orbit
Decayed
Country
Flag of USUS
Related business
Manufacturer
SpaceX/Seattle
Mission
Decayed Commercial Communications
Bus & Motor
STARLINK, Unknown motor
Mass
305 kg wet, ~290 kg dry
Launch date (UTC)
2022-10-05 (4 years ago)
Launch vehicle
FALCON 9
Launch site
Air Force Western Test Range (AFWTR)
Object type
Payload
Rocket body
Debris
Shape & HBR
Box + 1 Pan, 10.1 m
Radar Cross Section
13.562 m², Large (>1 m²)

Expand to show TLE details & history
Last TLE update: 5 months ago

TLE from 5 months ago
0 STARLINK-5103
1 53983U 22125V   26033.54845693  .08595258  12440-4  31590-3 0  9996
2 53983  53.2037 337.0964 0005781 260.1004  99.9394 16.43935048184645
Epoch: 2026-02-02T13:09Z
TLE epoch observation values (Epoch: 2026-02-02T13:09:46.678Z)
Latitude
-0.00003°
Longitude
6.90973°
Altitude
156.958 km
Speed
7.813 km/s
True Right ascension
22h 28m 23s
True Declination
0° 00' 00"
Sunlit
Object was in daylight at epoch
Visualization orbit readout
Latitude
Unknown
Longitude
Unknown
Altitude
Unknown
Speed
Unknown
Apparent Right ascension
Unknown
Apparent Declination
Unknown
Sunlit
N/A
Visualization observer readout
Local Sidereal Time
21:31:07
Azimuth
Unknown
Elevation
Unknown
Doppler factor
Unknown
Orbital elements
Apogee altitude
159.394 km
Perigee altitude
151.84 km
Semi-major axis
6,533.754 km
Eccentricity
0.00058
Inclination
53.2037°
RAAN
337.0964°
Arg. of periapsis
260.1004°
True anomaly
100.00464°
Mean anomaly
99.9394°
Eccentric anomaly
99.97202°
Mean motion
4.10959 °/min
Orbital period
87.6 mins
BSTAR
0.0003159
Loading maneuver chart data...
Computing Atmospheric mass density...
Loading historical data...
Loading historical data...
Loading historical data...
Loading historical data...
Loading historical data...
Loading historical data...
Loading historical data...

Documentation

Showing up to 5 results
|